Location: 3 Angels Observatory
(30.5437°N, 88.5068°W)
Time: 09:24:38
(UTC-06:00)

Daily predictions for brighter satellites

Satellite Brightness Start Highest point End
(mag) Time Altitude Azimuth Time Altitude Azimuth Time Altitude Azimuth
Meteor 1-12 Rocket 4.4 17:08:53 10° N 17:14:42 67° E 17:20:37 10° SSE
CZ-3B DEB 3.8 17:13:30 10° WNW 17:16:17 19° NNW 17:21:08 10° NNE
COSMO-SKYMED 1 3.6 17:13:27 10° NE 17:17:08 27° E 17:20:48 10° SSE
OTV 4 3.6 17:17:29 10° WSW 17:19:09 14° SW 17:20:47 10° S
Cosmos 921 Rocket 3.0 17:17:40 10° S 17:21:49 62° E 17:26:05 10° NNE
Cosmos 1025 Rocket 4.2 17:18:56 10° SE 17:22:22 23° E 17:25:49 10° NE
SJ-12 3.9 17:20:43 10° SSE 17:24:47 76° ENE 17:28:54 10° N
Cosmos 1536 Rocket 4.4 17:21:46 10° SSW 17:26:08 56° W 17:30:31 10° N
ATLAS 2AS CENTAUR R/B 3.4 17:23:00 10° NNW 17:30:53 71° WSW 17:38:06 10° SSE
YAOGAN 1 2.5 17:31:16 10° SSE 17:35:34 82° ENE 17:39:54 10° N
Cosmos 1371 Rocket 4.2 17:31:01 10° S 17:36:14 57° ESE 17:41:29 10° NNE
Cosmos 2297 4.2 17:30:56 10° SSW 17:36:32 64° WNW 17:42:07 10° NNE
SPOT 3 Rocket 3.7 17:34:41 10° SSE 17:39:52 83° WSW 17:45:04 10° NNW
Nadezhda 3 Rocket 4.0 17:38:54 10° S 17:45:05 88° E 17:51:22 10° N
COSMOS 2487 2.4 17:42:15 10° NNW 17:45:51 85° ENE 17:49:24 10° SSE
Cosmos 2278 Rocket 4.3 17:41:54 10° WSW 17:46:17 23° WNW 17:50:43 10° N
Cosmos 1346 Rocket 4.2 17:44:49 10° SSW 17:48:29 39° W 17:52:09 10° N
SMAP 3.6 17:45:19 10° S 17:49:54 62° W 17:54:31 10° NNW
GRACE-2 3.7 17:49:07 10° S 17:51:53 81° E 17:54:39 10° N
GRACE-1 3.7 17:49:32 10° S 17:52:18 85° E 17:55:05 10° N
Orbus 7S? 3.9 17:50:42 10° S 17:53:23 24° SE 17:54:06 21° E
Cosmos 1666 3.6 17:53:26 10° NNE 17:56:48 28° E 18:00:09 10° SE
CZ-3B R/B 4.1 17:53:07 10° WSW 17:57:43 25° SSW 17:59:23 12° SE
Genesis I 3.8 17:55:02 10° NW 17:58:52 59° WSW 18:02:40 10° SSE
NOSS 7 (H) 4.4 17:58:13 10° SSW 18:01:46 80° WNW 18:03:55 20° NNE
Delta 2 Rocket 3.9 18:00:40 10° WNW 18:04:07 37° N 18:05:39 26° NE
SKYMED 2 3.7 18:00:54 10° N 18:05:15 74° WNW 18:09:33 10° SSW
Cosmos 1452 Rocket 4.3 18:02:09 10° SSE 18:06:38 30° E 18:08:13 25° ENE
IDEFIX/ARIANE 42P 4.0 18:04:21 10° SSW 18:09:13 41° W 18:14:06 10° NNW
Cosmos 1833 Rocket 2.6 18:04:39 10° NNW 18:10:16 67° ENE 18:15:50 10° SSE
Intercosmos 25 3.3 18:10:58 10° NNW 18:14:08 70° W 18:18:08 10° S
Cosmos 1892 Rocket 3.6 18:10:27 10° S 18:14:40 54° E 18:17:14 22° NNE
Cosmos 2082 Rocket 2.2 18:11:49 10° NNW 18:17:31 86° WSW 18:23:12 10° SSE
Cosmos 1743 3.1 18:14:34 10° NNW 18:18:23 63° W 18:22:11 10° S
FALCON 9 R/B 3.6 17:52:22 10° W 18:20:11 73° N 18:24:36 29° ENE
Meteor 1-28 Rocket 3.4 18:21:16 15° N 18:24:18 72° WNW 18:28:03 10° SSW
Cosmos 1484 Rocket 3.6 18:22:27 10° S 18:26:05 49° W 18:29:43 10° NNW
Okean 2 3.3 18:23:23 10° S 18:27:32 89° W 18:30:08 22° N
Cosmos 1726 Rocket 3.6 18:23:26 10° N 18:27:48 52° E 18:32:08 10° SSE
Meteor 2-8 Rocket 4.5 18:28:01 10° S 18:34:04 80° W 18:40:12 10° N
Cosmos 1934 Rocket 3.9 18:30:53 10° N 18:37:08 87° E 18:43:28 10° S
Cosmos 1339 Rocket 4.3 18:37:39 10° S 18:43:38 62° E 18:45:55 37° NNE
Cosmos 1606 Rocket 3.8 18:42:28 10° N 18:46:56 72° W 18:51:22 10° S
Meteor 1-15 Rocket 4.1 18:41:14 10° N 18:47:07 83° E 18:52:53 10° S
Cosmos 2369 Rocket 2.1 18:44:21 10° S 18:49:58 71° ESE 18:50:46 61° ENE
Meteor 2-9 Rocket 4.5 18:49:42 10° NNW 18:55:00 62° W 19:00:13 10° S
Delta 128 4.4 18:49:13 10° W 18:56:12 70° S 18:57:27 55° SE
NOSS 3-4 (A) 3.7 18:59:46 10° NNW 19:06:59 85° ENE 19:11:08 30° SSE
NOSS 3-4 (C) 3.7 18:59:52 10° NNW 19:07:05 84° ENE 19:10:59 32° SSE
Cosmos 1605 Rocket 4.5 19:14:34 10° NNW 19:20:41 58° W 19:26:41 10° S
ATLAS 3B CENTAUR R/B 3.1 19:04:48 10° W 19:21:58 70° SSW 19:23:21 60° SE
Cosmos 1943 Rocket 3.8 19:16:49 10° S 19:18:47 22° S 19:18:47 22° S
